Egbert, Ontario

4:38 PM EDT on July 25, 2017 (GMT -0400)
Egbert

Weather History for CXET - June, 2014

Change the Weather History Date:

Tuesday, June 10, 2014

  Actual Average Record
Temperature  
Mean Temperature 64 °F -  
Max Temperature 79 °F - - ()
Min Temperature 49 °F - - ()
Degree Days  
Heating Degree Days 1    
Growing Degree Days 14 (Base 50)    
Moisture  
Dew Point 49 °F    
Average Humidity 57    
Maximum Humidity 82    
Minimum Humidity 22    
Precipitation  
Precipitation 0.00 in - - ()
Sea Level Pressure  
Sea Level Pressure 29.97 in    
Wind  
Wind Speed 3 mph ()    
Max Wind Speed 8 mph    
Max Gust Speed -    
T = Trace of Precipitation, MM = Missing Value Source: Averaged Metar Reports

Daily Weather History Graph

Daily Weather History Graph

Search for Another Location

Airport or City:

Trip Planner

Search our weather history database for the weather conditions in past years. The results will help you decide how hot, cold, wet, or windy it might be!

Date:

Astronomy

Jun. 10, 2014 Rise Set
Actual Time 5:35 AM EDT 9:02 PM EDT
Civil Twilight 4:58 AM EDT 9:38 PM EDT
Nautical Twilight 4:11 AM EDT 10:26 PM EDT
Astronomical Twilight 3:11 AM EDT 11:26 PM EDT
Moon 6:20 PM EDT (6/10) 3:46 AM EDT (6/10)
Length of Visible Light 16h 39m
Length of Day
15h 26m
Waxing Gibbous, 92% of the Moon is Illuminated
Jun 10
Waxing Gibbous
Jun 13
Full
Jun 19
Last Quarter
Jun 27
New
Jul 5
First Quarter

Hourly Weather History & Observations

Time (EDT) Temp. Dew Point Humidity Pressure Visibility Wind Dir Wind Speed Gust Speed Precip Events Conditions
12:00 AM 57.4 °F 43.3 °F 59% 29.97 in - Calm Calm - N/A   Unknown
1:00 AM 52.9 °F 45.3 °F 75% 29.97 in - North 3.5 mph - N/A   Unknown
2:00 AM 52 °F 44 °F 64% 29.96 in - NW 2.3 mph - -  
2:00 AM 51.8 °F 43.5 °F 73% 29.96 in - NW 2.3 mph - N/A   Unknown
3:00 AM 51.6 °F 43.5 °F 74% 29.96 in - North 1.2 mph - N/A   Unknown
4:00 AM 50.2 °F 41.9 °F 73% 29.95 in - NNW 3.5 mph - N/A   Unknown
5:00 AM 49.8 °F 44.4 °F 82% 29.96 in - WNW 1.2 mph - N/A   Unknown
6:00 AM 50.0 °F 44.2 °F 81% 29.97 in - WNW 2.3 mph - N/A   Unknown
7:00 AM 53.2 °F 47.1 °F 80% 29.98 in - Calm Calm - N/A   Unknown
8:00 AM 60 °F 50 °F 61% 29.98 in - Calm Calm - -  
8:00 AM 59.9 °F 50.0 °F 70% 29.98 in - Calm Calm - N/A   Unknown
9:00 AM 66.0 °F 50.0 °F 56% 29.98 in - Calm Calm - N/A   Unknown
10:00 AM 71.4 °F 50.5 °F 48% 29.98 in - North 1.2 mph - N/A   Unknown
11:00 AM 74.7 °F 45.5 °F 35% 29.97 in - East 3.5 mph - N/A   Unknown
12:00 PM 77.2 °F 48.6 °F 36% 29.98 in - ENE 4.6 mph - N/A   Unknown
1:00 PM 77.5 °F 45.9 °F 33% 29.98 in - ENE 8.1 mph - N/A   Unknown
2:00 PM 78 °F 46 °F 22% 29.97 in - NE 4.6 mph - -  
2:00 PM 78.3 °F 46.4 °F 32% 29.97 in - NE 4.6 mph - N/A   Unknown
3:00 PM 78.1 °F 50.4 °F 38% 29.96 in - East 5.8 mph - N/A   Unknown
4:00 PM 78.1 °F 48.2 °F 35% 29.97 in - ENE 5.8 mph - N/A   Unknown
5:00 PM 78.6 °F 45.9 °F 31% 29.97 in - East 5.8 mph - N/A   Unknown
6:00 PM 77.5 °F 53.8 °F 44% 29.97 in - SSE 5.8 mph - N/A   Unknown
7:00 PM 75.0 °F 57.7 °F 55% 29.98 in - SSE 8.1 mph - N/A   Unknown
8:00 PM 72 °F 58 °F 52% 29.97 in - SSE 4.6 mph - -  
8:00 PM 70.7 °F 57.9 °F 64% 29.97 in - SSE 4.6 mph - N/A   Unknown
9:00 PM 69.8 °F 56.3 °F 62% 29.97 in - SE 8.1 mph - N/A   Unknown
10:00 PM 66.9 °F 57.7 °F 72% 29.97 in - SE 5.8 mph - N/A   Unknown
11:00 PM 65.7 °F 57.6 °F 75% 29.98 in - SE 3.5 mph - N/A   Unknown